Temperature
20 21 21 21 20 20 20 20 20 20 20 20 20 20 20 20 19 19 19 19 19 19 19 19 19 19 19 19 19 19 19 19 19 19 18 18 18 18 18 18 18 18 18
21 21 21 20 20 20 20 20 20 20 20 20 20 20 19 19 19 19 19 19 19 19 19 19 19 19 18 19 19 19 18 18 18 18 18 18 18 18 18 18 18 18 18
21 21 21 20 20 20 20 20 20 20 20 20 20 19 19 19 19 19 19 19 19 19 19 19 19 18 18 18 18 18 18 18 18 18 18 18 18 18 18 18 18 18 18
21 21 20 20 20 20 20 20 20 20 20 20 19 19 19 19 19 19 19 19 19 19 19 19 18 18 18 18 18 18 18 18 18 18 18 18 18 18 18 18 18 18 18
21 21 21 21 20 20 20 20 20 20 20 19 19 19 19 19 19 19 19 19 19 19 19 18 18 18 18 18 18 18 18 18 18 18 18 18 18 18 18 18 18 18 18
21 21 21 21 20 20 20 20 20 20 20 19 20 19 19 19 19 19 19 19 19 19 19 19 19 18 18 18 18 18 18 18 18 18 18 18 18 18 18 18 18 18 18
21 21 21 21 21 20 20 20 20 20 20 20 20 19 19 19 19 19 19 19 19 19 19 19 19 19 19 18 18 18 18 18 18 18 18 18 18 18 18 18 18 18 18
22 21 21 21 21 21 20 20 20 20 20 20 20 19 19 19 19 19 19 19 19 19 19 19 19 19 19 19 19 19 18 18 18 18 18 18 18 18 18 18 18 18 18
22 22 21 21 21 21 20 20 20 20 20 20 19 19 19 19 19 19 19 19 19 19 19 19 19 19 19 19 19 19 19 19 18 18 18 18 18 18 18 18 18 18 17
22 22 21 21 21 21 20 20 20 20 20 20 19 19 19 19 19 19 19 19 19 19 19 19 19 19 19 19 19 19 19 19 19 18 18 18 18 18 18 18 18 17 17
22 22 21 21 21 21 20 20 20 20 20 19 19 19 19 19 19 19 19 19 19 19 19 19 19 19 19 19 19 19 19 19 19 18 18 18 18 18 18 18 18 17 17
22 22 22 21 21 21 20 20 20 20 20 19 19 19 19 19 19 19 19 19 19 19 19 19 19 19 19 19 19 19 19 19 19 19 19 18 18 18 18 18 18 18 17
22 22 22 22 21 21 21 20 20 20 20 19 19 19 19 19 19 19 19 19 19 19 19 19 19 19 18 19 19 19 19 19 19 19 19 18 18 18 18 18 18 17 17
22 22 22 22 21 21 21 20 20 20 20 20 19 19 19 19 19 19 19 19 19 19 19 19 19 18 18 18 19 19 19 19 19 19 19 18 18 18 18 18 18 18 17
23 22 22 22 21 21 21 20 20 20 20 20 20 19 19 19 19 19 19 19 19 19 19 19 19 19 18 18 19 19 19 19 19 19 19 18 18 18 18 18 18 18 18
23 22 22 21 21 21 21 20 20 20 20 20 20 19 19 19 19 19 19 19 19 19 19 19 19 19 19 18 18 18 18 18 19 19 18 18 18 18 18 18 18 18 18
22 22 22 21 21 21 20 20 20 20 20 20 20 20 19 19 19 19 19 19 19 19 19 19 19 19 19 19 18 18 18 18 18 18 18 18 18 18 18 18 18 18 17
22 22 22 21 21 21 20 20 20 20 20 20 20 20 19 19 19 19 19 19 19 19 19 19 19 19 19 19 18 18 18 18 18 18 18 18 18 18 18 18 18 18 17
22 22 22 21 21 21 20 20 20 20 20 20 20 20 19 19 19 19 19 19 19 19 19 19 19 19 19 18 18 19 19 19 19 18 18 18 18 18 18 18 18 18 17
22 22 21 21 21 21 20 20 20 20 20 20 20 20 19 19 19 19 19 19 19 19 19 19 19 19 18 18 18 19 19 19 19 19 18 18 18 18 18 18 18 18 18
22 22 21 21 21 21 20 20 20 20 20 20 20 20 19 19 19 19 19 19 19 19 19 18 18 18 18 18 18 18 19 19 19 19 18 18 18 18 18 18 18 17 17
22 22 21 21 21 21 21 20 20 20 20 20 20 20 19 19 19 19 19 19 19 19 18 18 18 18 18 18 18 18 18 18 19 18 18 18 18 18 18 18 17 17 17
22 22 21 21 21 21 20 20 20 20 20 20 20 20 19 19 19 19 19 19 19 18 18 18 18 18 18 18 18 18 18 18 18 18 18 18 18 18 18 17 17 17 17
22 22 21 21 21 21 20 20 20 20 20 20 20 20 19 19 19 19 19 19 19 18 18 18 18 18 18 18 18 18 18 18 18 18 18 18 18 18 17 17 17 17 17
23 22 21 21 21 21 21 20 20 20 20 20 20 20 19 19 19 19 19 19 18 18 18 18 18 18 18 18 18 18 18 18 18 18 18 18 18 18 17 17 17 17 17
23 22 21 21 21 21 20 20 20 20 20 20 20 19 19 19 19 19 18 19 18 18 18 18 18 18 18 18 18 18 18 18 18 18 18 17 17 17 17 17 17 17 17
Wind_Speed
10 11 14 14 13 13 14 14 13 13 13 12 12 12 11 11 11 10 10 11 11 12 12 11 10 10 8 8 8 8 8 8 9 9 8 8 7 7 6 7 8 9 11
13 13 14 14 14 14 14 13 13 12 12 12 12 11 11 11 10 10 9 10 11 11 11 10 9 9 8 8 8 8 8 8 8 8 8 7 7 6 6 6 7 9 10
15 14 13 13 13 13 13 13 12 12 12 12 12 11 10 10 9 9 8 10 11 10 10 9 9 8 8 8 8 8 7 7 7 7 7 6 7 7 7 7 9 10 9
14 13 13 14 14 13 13 13 13 12 12 11 11 11 10 9 9 9 9 10 10 10 9 8 8 8 8 8 7 7 7 7 7 7 6 6 7 8 8 8 9 9 8
14 14 14 15 14 14 13 13 12 12 11 11 10 10 9 9 9 9 9 9 9 9 8 8 7 7 7 7 7 6 6 6 7 7 5 6 7 10 10 9 9 8 8
14 14 15 15 15 14 14 13 12 11 11 10 9 9 9 8 8 9 9 8 8 7 7 7 7 7 6 7 7 6 6 6 6 5 7 8 8 10 10 10 9 8 8
13 14 16 16 16 15 14 13 13 11 10 9 8 8 8 8 8 9 8 7 7 6 6 6 6 6 6 6 6 6 6 6 6 5 7 8 10 11 10 9 8 8 8
14 14 16 17 17 16 15 14 13 11 9 9 8 8 7 8 8 8 7 7 7 6 6 6 6 6 6 6 6 6 6 6 5 5 8 9 11 10 10 10 9 8 8
13 14 14 15 15 15 15 14 12 11 9 8 8 8 7 7 7 7 7 7 6 6 6 6 5 5 6 6 6 7 7 6 4 4 8 9 11 10 10 9 9 8 8
12 12 12 13 13 12 13 13 13 12 10 8 8 7 7 7 7 7 7 7 6 6 6 5 5 5 6 6 7 7 7 6 6 4 7 10 12 11 9 9 8 8 8
10 10 10 11 10 10 12 13 12 11 9 8 7 7 6 6 6 7 7 7 7 6 6 6 5 6 6 7 8 9 7 6 4 5 7 11 12 11 9 9 9 9 9
8 8 8 9 9 8 9 10 8 8 9 6 6 6 5 4 4 5 8 7 7 7 7 7 7 6 6 6 8 9 6 5 4 6 9 13 12 11 10 9 9 9 9
8 6 6 8 7 7 6 6 5 5 7 6 5 4 4 3 3 4 4 5 6 7 6 6 6 5 5 4 3 5 5 2 3 6 10 13 12 11 10 9 9 9 9
9 7 6 7 6 6 5 4 3 3 4 4 5 3 3 1 2 2 1 1 3 3 3 3 3 3 2 1 2 2 2 2 3 6 9 13 13 11 11 10 9 9 9
9 7 7 7 7 6 4 2 3 3 3 4 4 3 2 2 2 2 1 1 1 2 3 2 2 2 2 2 1 2 2 2 3 5 8 12 12 12 11 10 9 9 8
9 8 7 8 8 6 4 2 2 3 3 4 3 3 2 2 2 1 1 1 1 1 1 1 1 1 2 1 1 1 2 2 3 5 7 9 11 12 12 11 10 9 9
9 8 7 7 8 6 5 3 3 2 3 3 3 4 3 2 2 1 1 1 1 0 1 2 1 1 2 2 2 2 1 2 2 4 5 6 8 10 11 11 10 9 9
9 8 7 7 8 6 4 2 2 2 3 2 3 3 3 2 1 1 1 1 0 0 0 1 1 1 1 1 1 1 1 2 2 3 4 5 6 7 9 11 10 9 8
10 9 7 6 7 6 5 3 3 2 2 2 2 2 2 2 1 1 1 1 1 0 0 0 2 0 1 1 1 2 2 2 2 3 4 4 5 7 7 10 10 9 8
11 9 8 7 6 5 4 3 2 2 2 2 2 1 2 2 1 0 1 0 0 1 1 1 1 0 1 1 1 0 1 2 2 2 3 3 4 6 8 9 9 8 9
11 10 8 7 6 4 3 3 3 3 2 2 3 2 2 1 1 1 1 1 0 0 0 0 0 0 0 0 0 1 1 1 2 2 2 2 2 4 5 7 7 6 7
12 11 9 8 7 5 4 3 3 3 3 3 2 3 2 1 1 1 1 0 0 0 0 0 1 1 1 1 1 0 0 1 1 1 2 3 3 3 3 4 5 6 6
12 11 9 8 7 6 5 3 2 2 2 2 3 2 2 1 1 0 1 0 0 0 1 1 1 1 1 0 1 0 0 0 1 0 0 2 3 3 3 3 4 5 5
12 11 9 9 7 6 5 3 4 3 3 2 2 3 3 1 1 1 1 1 0 1 1 1 1 1 1 1 0 0 1 1 0 1 1 0 1 2 3 2 3 4 5
12 12 10 8 7 7 5 4 3 2 2 2 2 3 3 2 1 1 2 1 1 1 1 1 1 1 0 1 1 0 0 1 1 1 1 1 1 1 2 3 3 4 5
11 11 11 9 7 6 5 4 4 2 2 2 2 2 2 2 2 2 2 1 1 1 1 1 1 1 0 1 1 1 1 0 1 1 1 1 1 1 1 2 3 4 5
Wind_Direction
100 108 111 108 106 106 106 105 105 103 103 103 100 99 99 100 101 104 110 118 122 125 129 132 135 137 134 129 125 121 121 124 129 131 126 127 128 125 127 137 137 123 124
111 114 112 109 109 110 111 109 107 105 104 104 103 103 101 100 103 107 113 123 127 128 132 137 138 140 136 134 136 134 132 133 138 141 139 136 136 132 131 133 124 125 129
112 118 115 112 112 113 112 113 112 110 107 105 105 104 102 103 105 108 109 121 129 130 131 135 138 138 138 143 144 142 144 144 150 158 160 155 149 147 139 131 129 134 133
115 120 118 119 116 115 115 117 116 114 111 108 107 105 104 105 107 109 110 114 122 125 126 130 136 138 138 145 148 150 155 164 172 185 191 166 155 151 150 143 139 143 143
112 115 119 123 121 120 120 120 118 116 113 109 108 107 105 107 109 112 111 117 120 124 126 128 133 137 142 150 158 165 169 181 192 207 179 133 133 150 155 152 151 152 152
113 116 123 125 125 124 123 124 120 117 117 116 112 111 110 110 112 114 112 114 118 124 129 133 138 143 150 161 171 181 191 200 213 199 149 137 137 152 156 156 158 160 161
113 118 128 129 130 129 128 126 123 121 122 123 122 120 120 118 118 121 120 121 123 128 133 140 147 153 157 169 184 198 207 219 230 185 141 135 140 148 155 161 162 166 168
110 119 128 134 133 134 132 130 128 126 127 130 131 130 128 128 128 132 132 130 132 136 139 145 152 162 169 180 193 206 215 230 218 153 136 129 140 148 158 164 166 170 174
109 118 130 137 138 140 137 135 135 134 135 135 139 139 138 138 137 137 140 140 142 145 152 158 163 175 182 192 203 215 226 237 249 175 143 138 148 154 158 163 168 173 176
111 118 125 132 137 141 141 144 146 144 144 143 144 151 149 148 150 153 153 150 156 161 164 168 180 190 198 206 213 218 230 242 233 176 134 145 155 160 164 169 175 178 179
116 123 128 129 136 139 141 142 151 151 150 152 153 158 160 166 160 160 151 157 170 177 178 183 195 201 208 216 218 221 228 228 206 132 132 151 160 163 167 175 182 184 184
117 121 125 130 135 137 135 140 154 154 148 155 142 154 170 169 151 138 145 168 178 183 186 197 204 208 215 215 212 212 224 212 182 136 142 153 162 167 171 179 181 186 190
125 118 120 122 121 120 118 139 150 143 146 152 142 153 155 154 143 133 153 168 178 183 191 189 201 212 208 201 191 191 201 189 151 140 147 158 166 174 178 181 184 190 194
133 130 120 114 103 97 103 119 131 131 142 141 140 141 142 132 109 104 126 165 175 175 166 176 179 185 185 174 192 178 160 173 136 135 153 164 171 179 181 182 186 193 195
134 132 117 106 98 93 90 106 120 118 126 126 135 154 144 125 97 97 112 173 203 175 168 171 163 159 152 171 197 152 139 173 155 149 157 170 174 177 178 181 186 191 194
135 129 116 119 114 115 121 125 126 123 116 120 135 132 134 107 82 72 61 55 344 155 141 153 141 144 149 149 197 166 163 177 164 153 154 169 177 179 181 184 188 194 199
136 131 129 133 127 133 139 155 130 126 128 135 129 118 117 104 101 118 107 78 351 1 136 150 156 172 166 166 170 181 192 192 178 162 165 166 171 181 183 186 190 194 199
133 133 141 143 136 139 132 143 128 117 112 120 121 119 120 121 123 154 91 97 180 221 109 119 141 191 153 144 153 203 191 184 178 178 170 168 164 169 180 185 189 190 194
135 135 136 125 131 137 140 146 132 118 103 107 110 111 127 129 129 119 86 52 266 275 74 166 112 89 99 112 192 213 195 181 188 193 164 168 164 161 164 176 185 187 194
137 137 138 134 131 138 143 146 140 131 141 128 117 93 110 132 138 156 146 117 319 10 36 55 99 161 201 213 235 235 213 195 185 186 174 163 160 170 171 168 174 187 195
143 145 149 143 143 149 148 164 159 165 156 137 139 127 128 142 147 130 353 118 339 86 58 67 122 163 236 144 88 349 294 213 165 146 146 157 168 160 156 155 162 170 183
151 151 151 152 153 160 159 172 168 160 154 141 132 124 135 150 140 137 107 337 40 74 43 68 81 28 316 42 77 297 320 354 20 150 172 167 166 142 144 163 163 162 170
156 161 162 158 156 163 166 169 152 146 150 143 143 135 152 147 137 26 107 48 352 157 126 155 119 181 259 297 69 30 37 36 329 311 177 143 152 151 168 157 150 156 157
159 159 155 157 158 161 173 175 176 163 162 160 150 145 149 146 158 137 113 97 54 43 98 207 155 209 229 299 344 353 61 104 186 313 317 43 161 173 166 172 147 141 141
159 158 155 151 158 160 170 167 177 169 170 149 144 139 147 146 159 161 139 149 178 156 160 163 107 158 185 286 296 275 238 228 233 211 256 260 259 205 164 155 141 129 129
157 155 152 149 153 162 170 168 166 178 180 153 155 159 176 166 167 161 133 150 178 178 183 150 192 161 197 286 297 303 277 254 234 235 243 242 240 249 178 149 139 140 144
Height
1489 1488 1488 1489 1490 1491 1492 1494 1495 1497 1498 1500 1501 1502 1504 1505 1506 1507 1508 1509 1512 1514 1516 1518 1520 1522 1524 1526 1528 1530 1531 1533 1534 1536 1537 1538 1540 1541 1543 1544 1546 1546 1547
1489 1489 1490 1490 1492 1493 1494 1496 1497 1499 1500 1502 1503 1504 1505 1506 1507 1508 1508 1509 1512 1515 1517 1519 1521 1523 1525 1526 1528 1530 1532 1533 1534 1536 1538 1539 1541 1542 1543 1544 1546 1547 1548
1490 1490 1491 1492 1493 1494 1496 1498 1499 1501 1502 1504 1505 1506 1507 1508 1509 1509 1507 1506 1511 1515 1518 1520 1522 1524 1525 1527 1529 1530 1532 1534 1535 1537 1538 1540 1541 1542 1543 1544 1546 1547 1548
1490 1491 1492 1493 1494 1496 1498 1500 1501 1503 1504 1506 1507 1508 1509 1510 1510 1510 1510 1510 1513 1516 1519 1521 1522 1524 1526 1527 1529 1531 1533 1534 1536 1537 1539 1540 1541 1542 1543 1545 1546 1547 1549
1491 1491 1492 1494 1495 1497 1499 1501 1503 1505 1506 1508 1509 1510 1511 1511 1512 1512 1513 1514 1516 1518 1520 1521 1523 1525 1526 1528 1529 1531 1533 1534 1536 1537 1539 1540 1541 1542 1543 1544 1546 1547 1548
1491 1491 1492 1495 1497 1499 1501 1503 1505 1507 1508 1510 1511 1512 1512 1513 1514 1514 1515 1516 1518 1519 1520 1522 1524 1525 1527 1528 1530 1531 1533 1534 1536 1538 1539 1540 1541 1542 1543 1544 1546 1547 1548
1490 1490 1492 1495 1498 1500 1503 1505 1507 1509 1510 1511 1512 1513 1514 1515 1515 1516 1517 1518 1519 1520 1521 1523 1524 1525 1527 1528 1530 1531 1533 1534 1535 1537 1539 1540 1541 1542 1543 1544 1545 1546 1548
1489 1489 1492 1496 1499 1502 1505 1507 1508 1510 1512 1513 1514 1515 1515 1516 1516 1517 1518 1519 1520 1521 1522 1523 1524 1526 1527 1528 1530 1531 1533 1534 1536 1537 1538 1539 1541 1542 1543 1544 1545 1546 1547
1492 1492 1494 1498 1502 1504 1507 1509 1510 1512 1513 1514 1515 1516 1517 1518 1518 1519 1519 1519 1520 1521 1522 1523 1525 1526 1527 1528 1530 1532 1533 1534 1536 1537 1538 1539 1540 1541 1542 1543 1544 1546 1547
1497 1498 1500 1502 1505 1507 1509 1511 1512 1514 1515 1516 1517 1518 1518 1519 1519 1520 1520 1520 1521 1521 1522 1524 1525 1526 1527 1529 1530 1532 1533 1534 1535 1537 1538 1539 1540 1541 1542 1543 1544 1545 1546
1501 1502 1504 1506 1508 1510 1511 1513 1514 1516 1517 1518 1518 1519 1520 1520 1520 1520 1520 1520 1520 1521 1522 1524 1525 1526 1527 1529 1530 1532 1533 1534 1535 1536 1537 1538 1539 1540 1541 1542 1543 1544 1546
1504 1505 1507 1508 1510 1512 1513 1515 1516 1518 1519 1519 1520 1520 1521 1521 1522 1522 1521 1520 1519 1520 1522 1524 1525 1527 1528 1529 1531 1532 1533 1534 1535 1536 1537 1538 1539 1540 1541 1542 1543 1544 1545
1506 1507 1509 1510 1512 1514 1515 1516 1518 1519 1520 1521 1521 1522 1522 1523 1523 1522 1521 1520 1520 1521 1523 1525 1526 1527 1528 1530 1531 1532 1533 1534 1535 1535 1537 1538 1538 1539 1540 1541 1542 1543 1544
1507 1509 1510 1511 1513 1514 1515 1517 1519 1520 1521 1522 1522 1523 1523 1524 1524 1523 1523 1522 1522 1523 1524 1526 1527 1528 1529 1530 1531 1532 1533 1534 1535 1535 1536 1537 1538 1539 1539 1540 1541 1542 1543
1507 1509 1511 1511 1513 1514 1516 1518 1520 1521 1522 1523 1523 1524 1524 1524 1524 1524 1524 1524 1524 1525 1526 1526 1527 1528 1529 1530 1531 1532 1533 1534 1535 1535 1536 1537 1537 1538 1539 1539 1540 1541 1542
1508 1510 1511 1511 1513 1515 1516 1518 1520 1522 1523 1524 1524 1524 1525 1525 1525 1525 1525 1525 1525 1526 1526 1527 1527 1528 1529 1530 1531 1532 1533 1534 1534 1535 1535 1536 1536 1537 1538 1538 1539 1540 1540
1507 1510 1511 1512 1514 1515 1517 1519 1521 1522 1523 1524 1524 1525 1525 1525 1525 1526 1526 1525 1526 1526 1527 1527 1527 1528 1529 1530 1531 1532 1532 1533 1533 1533 1534 1535 1535 1536 1537 1537 1538 1539 1539
1507 1509 1511 1513 1514 1516 1517 1519 1521 1523 1524 1524 1525 1525 1525 1525 1525 1526 1526 1526 1526 1526 1526 1527 1527 1528 1529 1530 1530 1531 1532 1532 1532 1532 1533 1534 1534 1535 1536 1536 1537 1538 1538
1506 1508 1511 1514 1515 1516 1518 1519 1521 1522 1524 1524 1525 1525 1525 1525 1525 1525 1526 1525 1526 1526 1526 1526 1527 1528 1528 1529 1529 1530 1531 1531 1531 1532 1532 1533 1534 1534 1535 1535 1536 1536 1537
1506 1508 1511 1513 1514 1516 1518 1519 1521 1522 1523 1524 1524 1525 1525 1525 1525 1525 1525 1525 1525 1525 1526 1526 1527 1527 1528 1529 1529 1530 1530 1530 1530 1531 1531 1532 1533 1533 1534 1534 1534 1535 1535
1505 1507 1510 1512 1514 1516 1517 1519 1520 1521 1523 1523 1524 1524 1525 1525 1525 1525 1525 1525 1525 1525 1525 1525 1526 1527 1528 1529 1529 1529 1529 1529 1529 1530 1530 1531 1532 1533 1533 1533 1533 1534 1534
1504 1507 1509 1511 1513 1515 1517 1518 1520 1521 1522 1523 1523 1524 1524 1524 1524 1525 1524 1524 1524 1524 1525 1525 1525 1526 1527 1528 1528 1528 1529 1530 1529 1530 1530 1530 1531 1532 1532 1532 1533 1533 1532
1503 1506 1508 1510 1512 1514 1516 1518 1520 1520 1522 1523 1523 1523 1523 1524 1524 1524 1524 1523 1523 1524 1524 1524 1525 1525 1526 1527 1528 1528 1529 1529 1529 1530 1530 1530 1530 1530 1531 1532 1532 1532 1532
1502 1504 1507 1509 1511 1512 1514 1516 1518 1519 1520 1521 1522 1522 1522 1523 1523 1523 1523 1523 1523 1523 1523 1523 1524 1525 1526 1526 1527 1527 1528 1529 1529 1529 1530 1529 1529 1529 1530 1531 1531 1531 1531
1501 1503 1505 1507 1509 1511 1513 1515 1517 1518 1519 1520 1521 1521 1521 1522 1522 1522 1522 1522 1522 1522 1523 1523 1524 1524 1525 1525 1526 1526 1527 1528 1528 1528 1528 1529 1529 1529 1529 1529 1529 1529 1530
1500 1502 1504 1505 1508 1510 1512 1514 1515 1516 1518 1519 1519 1520 1520 1521 1521 1521 1521 1522 1522 1522 1522 1523 1523 1524 1524 1524 1525 1525 1526 1526 1526 1527 1527 1527 1527 1528 1528 1528 1528 1528 1528